GW3095 Weather Reports


time (UTC)temp
C
wind
direction
speed
KPH
gust
KPH
rain 1hr
cm
rain 24hr
cm
rain mn
cm
humidity
%
barometer
mb
20260504050007 11 67 0.0 1.6 0.00 0.00 0.00 79 1015.6
20260504044005 11 67 0.0 1.6 0.00 0.00 0.00 78 1015.7
20260504043005 11 67 0.0 1.6 0.00 0.00 0.00 77 1015.8
20260504042005 11 67 0.0 1.6 0.00 0.00 0.00 75 1015.8
20260504041005 11 67 0.0 1.6 0.00 0.00 0.00 77 1015.9
20260504040005 11 67 0.0 1.6 0.00 0.00 0.00 76 1015.8
20260504035010 11 67 0.0 1.6 0.00 0.00 0.00 77 1015.9
20260504034005 11 67 0.0 1.6 0.00 0.00 0.00 76 1016.0
20260504033005 11 67 0.0 1.6 0.00 0.00 0.00 77 1016.0
20260504032005 11 67 0.0 1.6 0.00 0.00 0.00 76 1016.1
20260504031005 11 67 0.0 1.6 0.00 0.00 0.00 75 1016.3
20260504030005 11 67 0.0 1.6 0.00 0.00 0.00 75 1016.3
20260504025005 11 67 0.0 1.6 0.00 0.00 0.00 73 1016.2
20260504024005 12 67 0.0 1.6 0.00 0.00 0.00 73 1016.2
20260504023005 12 67 0.0 1.6 0.00 0.00 0.00 72 1016.0
20260504022005 12 67 0.0 1.6 0.00 0.00 0.00 74 1016.0
20260504021005 12 67 0.0 1.6 0.00 0.00 0.00 73 1015.6
20260504020005 12 67 0.0 1.6 0.00 0.00 0.00 71 1015.5
20260504014005 13 67 0.0 1.6 0.00 0.00 0.00 68 1015.5
20260504013005 13 67 0.0 1.6 0.00 0.00 0.00 67 1015.5
20260504012005 13 67 0.0 1.6 0.00 0.00 0.00 66 1015.5
20260504010005 14 67 0.0 1.6 0.00 0.00 0.00 65 1015.4
20260504005005 14 67 0.0 1.6 0.00 0.00 0.00 64 1015.4
20260504004005 15 67 0.0 1.6 0.00 0.00 0.00 64 1015.4
20260504003004 15 67 0.0 1.6 0.00 0.00 0.00 63 1015.4
20260504002005 15 67 0.0 1.6 0.00 0.00 0.00 62 1015.6
20260504001005 15 67 0.0 1.6 0.00 0.00 0.00 62 1015.8
20260504000005 16 67 0.0 1.6 0.00 0.00 0.00 62 1015.8
20260503235005 16 67 0.0 1.6 0.00 0.00 0.00 62 1015.9
20260503234004 16 67 0.0 1.6 0.00 0.00 0.00 62 1015.9
20260503233005 16 67 0.0 1.6 0.00 0.00 0.00 60 1015.6
20260503231006 17 67 0.0 1.6 0.00 0.00 0.00 54 1015.8
20260503230006 17 99 0.0 1.6 0.00 0.00 0.00 53 1015.9
20260503225005 17 99 0.0 1.6 0.00 0.00 0.00 52 1016.2
20260503224005 17 103 0.0 1.6 0.00 0.00 0.00 58 1016.5
20260503223010 17 103 1.6 1.6 0.00 0.00 0.00 53 1016.5
20260503222005 17 101 0.0 1.6 0.00 0.00 0.00 50 1016.6
20260503221005 17 101 0.0 1.6 0.00 0.00 0.00 48 1016.6
20260503220005 17 112 1.6 1.6 0.00 0.00 0.00 48 1016.7
20260503214005 18 28 0.0 1.6 0.00 0.00 0.00 52 1016.9
20260503213005 18 28 1.6 1.6 0.00 0.00 0.00 49 1017.0
20260503212005 18 98 1.6 1.6 0.00 0.00 0.00 43 1017.0
20260503211005 18 28 1.6 1.6 0.00 0.00 0.00 49 1017.2
20260503210006 18 51 0.0 1.6 0.00 0.00 0.00 43 1017.3
20260503205005 18 5 0.0 1.6 0.00 0.00 0.00 49 1017.6
20260503203005 18 355 1.6 1.6 0.00 0.00 0.00 44 1017.8
20260503202005 18 65 0.0 1.6 0.00 0.00 0.00 44 1018.0
20260503201005 18 46 0.0 1.6 0.00 0.00 0.00 46 1018.3
20260503200010 18 355 3.2 1.6 0.00 0.00 0.00 43 1018.4
20260503195005 18 40 0.0 1.6 0.00 0.00 0.00 46 1018.6
20260503193005 18 83 1.6 1.6 0.00 0.00 0.00 43 1018.9
20260503191005 18 63 1.6 1.6 0.00 0.00 0.00 44 1019.3
20260503190006 18 103 6.4 1.6 0.00 0.00 0.00 41 1019.5
20260503185005 18 360 1.6 1.6 0.00 0.00 0.00 43 1019.6
20260503184005 18 103 1.6 1.6 0.00 0.00 0.00 42 1019.8
20260503181005 18 10 1.6 1.6 0.00 0.00 0.00 42 1020.1
20260503180006 18 95 1.6 1.6 0.00 0.00 0.00 44 1020.1
20260503175010 18 109 0.0 1.6 0.00 0.00 0.00 41 1020.3
20260503174005 18 103 1.6 1.6 0.00 0.00 0.00 42 1020.5
20260503173005 17 44 0.0 1.6 0.00 0.00 0.00 42 1020.5
20260503172005 17 102 1.6 1.6 0.00 0.00 0.00 43 1020.7
20260503171005 17 88 3.2 1.6 0.00 0.00 0.00 42 1020.8
20260503081005 6 41 0.0 1.6 0.00 0.00 0.00 91 1019.8
20260503072005 7 41 0.0 1.6 0.00 0.00 0.00 91 1019.7